Location: Unspecified
(51.5147°N, 7.4673°E)
Time: 04:49:21
(UTC+01:00)

A-11 Canister half - Pass Details

Date: 23 February 2026
Orbit: 1512 x 1687 km, 47.2° (Epoch: 7 March)

Event Time Altitude Azimuth Distance (km) Brightness Sun altitude
Rises 21:35:03 0° 248° (WSW) 4,938 12.1 -33.2°
Reaches altitude 10° 21:38:15 10° 246° (WSW) 3,949 11.5 -33.7°
Enters shadow 21:47:41 65° 184° (S) 1,810 9.1 -34.9°
Maximum altitude 21:48:16 66° 167° (SSE) 1,797 - -35.0°
Drops below altitude 10° 21:58:02 10° 89° (E) 3,866 - -36.2°
Sets 22:01:08 0° 87° (E) 4,830 - -36.6°
